Date,TemperatureHighF,TemperatureAvgF,TemperatureLowF,DewpointHighF,DewpointAvgF,DewpointLowF,HumidityHigh,HumidityAvg,HumidityLow,PressureMaxIn,PressureMinIn,WindSpeedMaxMPH,WindSpeedAvgMPH,GustSpeedMaxMPH,PrecipitationSumIn
2013-4-1,63.3,47.3,35.0,49.3,38.0,13.7,95,73,40,29.79,29.50,14,1,15,0.13
2013-4-2,40.9,34.5,28.7,19.9,15.1,11.2,59,45,32,29.95,29.79,16,2,21,0.00
2013-4-3,46.9,37.1,29.9,20.4,14.9,11.4,64,41,25,30.16,29.93,19,2,20,0.00
2013-4-4,58.4,42.2,29.2,26.9,18.1,12.4,61,41,17,30.30,30.05,10,1,0,0.00
2013-4-5,60.9,46.1,37.0,31.9,27.7,21.3,74,52,23,30.06,29.62,11,1,13,0.00
2013-4-6,47.7,38.3,31.4,27.7,12.8,4.9,64,37,19,30.34,29.88,15,2,19,0.00
2013-4-7,55.2,42.1,27.5,40.4,28.6,16.8,82,60,34,30.34,30.00,14,1,14,0.00
2013-4-8,66.7,52.6,41.8,43.5,40.4,34.6,94,67,33,30.09,29.95,10,1,0,0.00
2013-4-9,72.7,56.0,46.1,54.0,44.7,39.1,95,69,39,30.09,29.85,14,1,14,0.07
2013-4-10,64.5,52.4,45.9,49.6,45.9,41.8,93,79,56,30.02,29.85,8,0,0,0.18
2013-4-11,53.0,47.4,42.3,48.0,41.5,28.3,95,81,51,30.14,29.82,6,0,0,0.09
2013-4-12,42.6,39.2,37.3,38.3,35.7,31.6,95,88,70,30.17,29.78,18,2,18,0.50
2013-4-13,53.1,43.5,35.6,40.8,37.1,33.8,95,80,53,29.93,29.75,11,1,13,0.03
2013-4-14,51.7,45.4,37.7,41.0,33.8,27.3,92,66,42,30.22,29.91,11,1,0,0.01
2013-4-15,57.9,45.3,31.4,40.0,33.9,28.1,89,66,40,30.39,30.22,9,1,0,0.00
2013-4-16,65.0,52.1,37.8,50.7,42.5,35.8,94,72,49,30.41,30.05,11,2,12,0.00
2013-4-17,69.0,58.9,49.3,52.4,38.2,28.5,86,50,25,30.33,30.05,11,2,12,0.00
2013-4-18,67.0,52.7,38.9,44.7,35.5,29.8,84,55,30,30.42,30.14,9,1,0,0.00
2013-4-19,75.8,63.6,52.4,62.8,57.7,44.7,96,82,58,30.14,29.65,11,2,15,0.00
2013-4-20,65.9,54.1,44.1,62.2,42.3,24.3,95,68,39,30.22,29.60,14,1,14,0.55
2013-4-21,53.4,43.0,33.8,29.0,23.8,19.2,73,48,27,30.68,30.22,11,1,0,0.00
2013-4-22,51.2,42.2,31.8,36.0,30.6,22.1,90,66,33,30.76,30.59,13,2,15,0.00
2013-4-23,42.4,41.2,40.1,40.7,38.2,31.4,95,89,70,30.59,30.12,10,1,0,0.11
2013-4-24,76.8,55.4,41.3,53.0,45.3,40.2,96,73,30,30.12,29.79,12,2,12,0.00
2013-4-25,65.1,55.3,45.1,52.3,37.9,26.3,93,57,25,30.26,29.83,11,1,13,0.04
2013-4-26,59.4,49.6,39.8,41.1,36.0,29.8,88,61,43,30.42,30.26,12,1,12,0.00
2013-4-27,65.5,51.9,36.9,43.0,37.5,34.1,96,62,33,30.42,30.28,7,0,0,0.00
2013-4-28,70.5,55.1,38.5,41.6,36.3,28.3,91,54,27,30.34,30.21,11,1,0,0.00
2013-4-29,71.7,57.5,45.5,47.4,38.2,24.8,90,54,26,30.28,30.19,7,1,0,0.00
2013-4-30,71.0,56.6,43.4,40.0,31.1,18.8,80,43,16,30.37,30.25,9,0,0,0.00